Overview Statistics Trail Chart Weather Telemetry Raw packets
 

This is the latest recevied weather packets stored in our database for station/object KQ7A. If no packets are shown the sender has not sent any weather packets the latest 10 day(s).

<< 58 59 60 61 62 63 64 >>
Time Temp. Humidity Pressure Rain* Wind** Luminosity Snow
1788281076 21.67° C 22% 1015.9 hPa 0 mm - 590 W/m² -
1788280771 21.67° C 23% 1015.9 hPa 0 mm - 580 W/m² -
1788280466 22.22° C 23% 1015.5 hPa 0 mm - 542 W/m² -
1788280159 21.67° C 25% 1015.6 hPa 0 mm - 518 W/m² -
1788279854 22.22° C 25% 1016 hPa 0 mm - 448 W/m² -
1788279548 21.67° C 29% 1015.9 hPa 0 mm - 409 W/m² -
1788279247 21.11° C 29% 1016.1 hPa 0 mm - 396 W/m² -
1788278942 21.67° C 27% 1015.8 hPa 0 mm - 360 W/m² -
1788278639 20.56° C 27% 1016.1 hPa 0 mm - 349 W/m² -
1788278338 20.56° C 28% 1016.1 hPa 0 mm - 322 W/m² -
1788278033 20° C 29% 1015.9 hPa 0 mm - 307 W/m² -
1788277730 20.56° C 28% 1015.8 hPa 0 mm - 288 W/m² -
1788277428 20.56° C 29% 1016 hPa 0 mm - 276 W/m² -
1788277123 20.56° C 28% 1015.9 hPa 0 mm - 258 W/m² -
1788276818 20° C 32% 1016 hPa 0 mm - 238 W/m² -
1788276516 20° C 29% 1016 hPa 0 mm - 224 W/m² -
1788276216 19.44° C 29% 1016.1 hPa 0 mm - 204 W/m² -
1788275906 19.44° C 31% 1016.1 hPa 0 mm - 190 W/m² -
1788275605 20° C 32% 1016 hPa 0 mm - 173 W/m² -
1788275300 19.44° C 32% 1016 hPa 0 mm - 150 W/m² -
1788274997 19.44° C 30% 1016 hPa 0 mm - 109 W/m² -
1788274689 18.89° C 31% 1016.2 hPa 0 mm - 97 W/m² -
1788274383 18.33° C 36% 1015.9 hPa 0 mm - 74 W/m² -
1788274079 18.89° C 35% 1015.8 hPa 0 mm - 81 W/m² -
1788273775 18.33° C 34% 1016 hPa 0 mm - 56 W/m² -

* Rain latest hour (hover to see other rain measurements)
** Current wind speed in m/s (hover to see current wind gust speed)